Regional Weather Roundup
Issued by NWS

Home | Current Version | Previous Version | Text Only | Print | Product List | Glossary Off
Versions: 1 2 3 4 5 6 7 8 9 10 11 12 13 14 15 16 17 18 19 20 21 22 23 24 25 26 27 28 29 30 31 32 33 34 35 36 37 38 39 40 41 42 43 44 45 46 47 48 49 50

000
ASUS43 KOAX 291710
RWRNE

WEATHER ROUNDUP FOR NEBRASKA
NATIONAL WEATHER SERVICE OMAHA NE
1200 PM CDT SUN MAR 29 2015

NOTES: SATELLITE DATA IS BEING USED TO AUGMENT CLOUD COVER ABOVE
       12000 FEET.
       "FAIR" INDICATES FEW OR NO CLOUDS BELOW 12,000 FEET WITH NO
       SIGNIFICANT WEATHER AND/OR OBSTRUCTIONS TO VISIBILITY.

  * THESE STATIONS DO NOT REPORT WEATHER SUCH AS RAIN...SNOW OR FOG.

NEZ001>004-019>022-054>056-291800-
NEBRASKA PANHANDLE

CITY           SKY/WX    TMP DP  RH WIND       PRES   REMARKS
SCOTTSBLUFF    SUNNY     57  27  31 NW24G33   30.27F
ALLIANCE       SUNNY     54  25  32 N20G26    30.23S
CHADRON        SUNNY     55  26  32 NW16G25   30.23S
KIMBALL        SUNNY     52  24  33 N26G36    30.26S
SIDNEY         SUNNY     54  25  32 N35G46    30.24S
$$

NEZ057>060-069>072-079>082-291800-
SOUTHWEST NEBRASKA

CITY           SKY/WX    TMP DP  RH WIND       PRES   REMARKS
NORTH PLATTE   SUNNY     57  26  30 N28G37    30.19R
IMPERIAL         N/A     58  28  32 N26G35    30.23R
LEXINGTON      SUNNY     59  31  34 NW26G41   30.16R
MCCOOK         SUNNY     62  28  27 N28G40    30.18R
OGALLALA       SUNNY     56  29  34 N23G33    30.22S
$$

NEZ005>010-023>029-035>040-094-291800-
NORTH CENTRAL NEBRASKA

CITY           SKY/WX    TMP DP  RH WIND       PRES   REMARKS
VALENTINE      SUNNY     51  18  27 NW26G37   30.16R
AINSWORTH      SUNNY     53  18  25 N32G40    30.15R
BROKEN BOW     SUNNY     58  29  33 N29G43    30.13R
O`NEILL        PTSUNNY   51  35  52 NW33G41   30.08R
ORD            SUNNY     57  31  37 NW31G45   30.08R
THEDFORD       SUNNY     54  22  28 NW35G43   30.17R
$$

NEZ041-046>049-061>064-073>077-083>087-291800-
SOUTH CENTRAL NEBRASKA

CITY           SKY/WX    TMP DP  RH WIND       PRES   REMARKS
GRAND ISLAND   SUNNY     58  34  40 NW29G45   30.09R
AURORA         SUNNY     59  35  41 NW32G41   30.07R
HASTINGS       SUNNY     61  35  37 NW31G40   30.08R
HEBRON         SUNNY     63  33  33 N24G35    30.05R
HOLDREGE       SUNNY     59  29  32 NW22G38   30.13R
KEARNEY *      SUNNY     59  34  38 N24G37    30.12R
YORK           MOSUNNY   59  37  44 NW31G41   30.05R
$$

NEZ011>018-030>034-042>045-291800-
NORTHEAST NEBRASKA

CITY           SKY/WX    TMP DP  RH WIND       PRES   REMARKS
NORFOLK        CLOUDY    48  37  65 NW32G44   30.02R
ALBION         CLOUDY    51  33  51 NW35G44   30.06R
BLAIR          MOSUNNY   57  39  51 NW32G45   29.96R
COLUMBUS *     CLOUDY    52  36  54 NW29G40   30.06R
FREMONT        CLOUDY    57  38  50 NW28G36   30.00R
TEKAMAH        CLOUDY    53  39  59 NW21G44   29.99R
WAYNE          CLOUDY    48  37  67 NW23G35   30.01R
$$

NEZ050>053-065>068-078-088>093-291800-
SOUTHEAST NEBRASKA

CITY           SKY/WX    TMP DP  RH WIND       PRES   REMARKS
LINCOLN        CLOUDY    60  38  43 NW32G41   30.02R
OMAHA EPPLEY   PTSUNNY   60  39  45 NW31G43   29.94R
BEATRICE       MOSUNNY   63  39  41 NW30G37   30.02R
FALLS CITY     MOSUNNY   64  38  38 NW28G37   29.97S
NEBRASKA CITY  MOSUNNY   62  34  34 NW28G40   29.97R
PLATTSMOUTH    CLOUDY    59  35  40 NW30G38   29.96R
$$

NEZ044-045-051>053-067-291800-
OMAHA AREA

CITY           SKY/WX    TMP DP  RH WIND       PRES   REMARKS
OMAHA EPPLEY   PTSUNNY   60  39  45 NW31G43   29.94R
BLAIR          MOSUNNY   57  39  51 NW32G45   29.96R
FREMONT        CLOUDY    57  38  50 NW28G36   30.00R
MILLARD        MOSUNNY   58  39  48 NW35G43   29.98R
OFFUTT AFB     PTSUNNY   60  39  44 NW29G36   29.95R
PLATTSMOUTH    CLOUDY    59  35  40 NW30G38   29.96R
WAHOO          CLOUDY    57  37  46 NW25G37   30.00R
$$


USA.gov is the U.S. government's official web portal to all federal, state and local government web resources and services.